User: anonymous   Login
Location: Unspecified
(0.0000°N, 0.0000°E)
Time: 19:56:43
(UTC+00:00)
Language:

LO-87 - Orbit

View from above orbital plane
View from above orbital plane
View from above satellite
View from above satellite

Ground track
Ground track

The orbit data is extracted from the following two-line orbital elements,

1 41557U 16033B   17144.88185210 +.00001764 +00000-0 +69258-4 0  9997
2 41557 097.4639 224.3989 0016103 090.4850 269.8234 15.26961817054870
Epoch (UTC): 24 May 2017 21:09:52
Eccentricity: 0.0016103
inclination: 97.4639°
perigee height: 474 km
apogee height: 496 km
right ascension of ascending node: 224.3989°
argument of perigee: 90.4850°
revolutions per day: 15.26961817
mean anomaly at epoch: 269.8234°
orbit number at epoch: 5487

The dashed part of the orbit path shows where the satellite is in the earth's shadow,  

DLR